ROS Resources: Documentation | Support | Discussion Forum | Service Status | Q&A answers.ros.org

Packaging and Release Management


Topic Replies Created
Preparing for Indigo Sync 2019-01-17 2 January 17, 2019
Preparing for Crystal sync and patch release: 2019-01-17 2 January 7, 2019
Preparing for Lunar sync 2019-01-09 2 January 9, 2019
Reintegrating ros2/rosdistro into ros/rosdistro 2 January 10, 2019
Preparing for Kinetic Sync 2019-01-03 2 January 3, 2019
Preparing for Indigo Sync 2019-01-03 2 January 3, 2019
Preparing for Melodic sync 2018-12-18 2 December 18, 2018
Preparing for Lunar sync 2018-12-12 2 December 12, 2018
ROS 2 Crystal Clemmys call for testing and package releases 15 December 8, 2018
New repository URLs for ROS 2 1 December 15, 2018
Preparing for Indigo Sync 2018-12-10 2 December 11, 2018
Preparing for Kinetic Sync 2018-12-10 2 December 11, 2018
ROS 2 not found test_pluginlib/local_setup.sh 3 December 9, 2018
Preparing for Kinetic Sync 2018-11-21 2 November 21, 2018
Preparing for Lunar sync 2018-11-13 4 November 13, 2018
Preparing for Melodic sync 2018-11-13 6 November 13, 2018
Preparing for Indigo Sync 2018-11-21 2 November 21, 2018
Switch Recommended ROS1 to Melodic? 3 November 21, 2018
Preparing for Kinetic Sync 2018-11-09 2 November 10, 2018
Preparing Indigo for Sync 2018-11-09 2 November 10, 2018
Request for Kinetic Sync 2 November 7, 2018
Preparing for Lunar sync 2018-11-01 2 October 26, 2018
Preparing for Melodic sync 2018-11-01 2 October 26, 2018
linux_networking maintainer transition 4 October 14, 2018
Preparing for Kinetic Sync 2018-10-26 3 October 26, 2018
Preparing for Indigo Sync 2018-10-26 2 October 26, 2018
Preparing for Melodic sync 2018-10-19 2 October 15, 2018
Preparing for Lunar sync 2018-10-19 2 October 15, 2018
Preparing for Kinetic Sync 2018-10-11 4 October 11, 2018
Preparing for Indigo Sync 2018-10-11 2 October 11, 2018